Weather in Shigali

Russia / Chuvash Republic     55°33′20″N   48°02′11″E
temp.,
°C
wind,
m/s
gust,
m/s
humid.,
%
clouds,
%
prec.,
mm/h
press.,
hPa
HPBL,
m
10 may, mon
mon1000:00+14sse3681100 0.0 101391
03:00+13nne1185100 0.4 101412
06:00+14ne4785100 0.2 1016212
09:00+18e4570100 0.2 1017436
12:00+21se3354100 0.0 10181001
15:00+22e234991 0.0 10191489
18:00+19n5872100 0.2 1020182
21:00+14nne5109495 0.8 1022245
11 may, tue
tue1100:00+13nne51097100 0.1 1023225
03:00+12nne4896100 0.1 1024182
06:00+13ne489071 0.0 1024203
09:00+19ene5664100 0.0 1025505
12:00+22e5551100 0.0 1026971
15:00+23e4545100 0.0 10261531
18:00+20ene3461100 0.0 102662
21:00+17e2262100 0.0 102721
12 may, wed
wed1200:00+15ne336899 0.0 102731
03:00+14ene3368100 0.0 102727
06:00+15ene377392 0.0 1028213
09:00+20ese4557100 0.0 1028520
12:00+23se584353 0.0 10272043
15:00+24ese574293 0.0 10272431
18:00+20s236533 0.0 102768
21:00+16e116882 0.0 102711
13 may, thu
thu1300:00+15e2274100 0.0 102711
03:00+14ese226925 0.0 102721
06:00+16ese376887 0.0 1027188
09:00+20ese58519 0.0 1027637
12:00+23se784211 0.0 10261456
15:00+23se5741100 0.0 10251533
18:00+20ese4863100 0.0 1024203
21:00+18se31066100 0.0 1024188
14 may, fri
fri1400:00+17se3965100 0.0 1024197
03:00+16sse386698 0.0 1024158
06:00+17sse397155 0.0 1024248
09:00+21sse585192 0.0 1024517
12:00+24sse684191 0.0 10231048
15:00+24sse69455 0.0 10221021
18:00+22sse495931 0.0 1021264
21:00+18sse486893 0.0 1020120